TimeCDT,TemperatureF,Dew PointF,Humidity,Sea Level PressureIn,VisibilityMPH,Wind Direction,Wind SpeedMPH,Gust SpeedMPH,PrecipitationIn,Events,Conditions,WindDirDegrees,DateUTC
12:58 AM,62.4,62.1,99,30.03,10.0,Calm,Calm,-,N/A,,Clear,0,2013-10-11 05:58:00
1:58 AM,61.3,61.2,99,30.03,2.5,Calm,Calm,-,N/A,,Clear,0,2013-10-11 06:58:00
2:03 AM,60.8,60.8,100,30.02,3.0,Calm,Calm,-,N/A,,Clear,0,2013-10-11 07:03:00
2:58 AM,61.5,61.2,99,30.02,10.0,Calm,Calm,-,N/A,,Clear,0,2013-10-11 07:58:00
3:58 AM,60.1,59.7,99,30.03,3.0,Calm,Calm,-,N/A,,Clear,0,2013-10-11 08:58:00
4:03 AM,59.0,59.0,100,30.02,0.5,NNE,1.2,-,N/A,Fog,Fog,20,2013-10-11 09:03:00
4:08 AM,59.0,59.0,100,30.02,0.2,NNE,2.3,-,N/A,Fog,Fog,30,2013-10-11 09:08:00
4:28 AM,59.0,59.0,100,30.02,0.5,NNE,1.2,-,N/A,Fog,Fog,30,2013-10-11 09:28:00
4:48 AM,59.0,59.0,100,30.02,0.2,NE,2.3,-,N/A,Fog,Fog,40,2013-10-11 09:48:00
4:58 AM,59.0,59.0,100,30.03,0.5,NNE,1.2,-,N/A,Fog,Fog,30,2013-10-11 09:58:00
5:08 AM,59.0,59.0,100,30.03,0.8,NNE,1.2,-,N/A,,Clear,30,2013-10-11 10:08:00
5:18 AM,59.0,59.0,100,30.03,0.5,NNE,2.3,-,N/A,Fog,Fog,20,2013-10-11 10:18:00
5:23 AM,59.0,59.0,100,30.03,0.8,North,1.2,-,N/A,,Clear,10,2013-10-11 10:23:00
5:28 AM,59.0,59.0,100,30.03,1.0,Calm,Calm,-,N/A,,Clear,0,2013-10-11 10:28:00
5:38 AM,59.0,59.0,100,30.03,0.8,North,1.2,-,N/A,,Clear,350,2013-10-11 10:38:00
5:48 AM,59.0,59.0,100,30.03,0.5,Calm,Calm,-,N/A,Fog,Fog,0,2013-10-11 10:48:00
5:58 AM,59.2,58.8,99,30.04,0.5,Calm,Calm,-,N/A,Fog,Fog,0,2013-10-11 10:58:00
6:03 AM,59.0,59.0,100,30.04,0.8,Calm,Calm,-,N/A,,Clear,0,2013-10-11 11:03:00
6:13 AM,59.0,59.0,100,30.04,0.5,NNE,2.3,-,N/A,Fog,Fog,20,2013-10-11 11:13:00
6:38 AM,59.0,59.0,100,30.04,0.2,North,2.3,-,N/A,Fog,Fog,10,2013-10-11 11:38:00
6:53 AM,59.0,59.0,100,30.05,0.5,Calm,Calm,-,N/A,Fog,Fog,0,2013-10-11 11:53:00
6:58 AM,59.4,59.2,99,30.06,0.5,Calm,Calm,-,N/A,Fog,Fog,0,2013-10-11 11:58:00
7:03 AM,59.0,59.0,100,30.05,0.2,Calm,Calm,-,N/A,Fog,Fog,0,2013-10-11 12:03:00
7:37 AM,59.0,59.0,100,30.06,0.2,North,1.2,-,N/A,Fog,Fog,350,2013-10-11 12:37:00
7:58 AM,61.5,61.2,99,30.08,0.2,Calm,Calm,-,N/A,Fog,Fog,0,2013-10-11 12:58:00
8:23 AM,64.4,64.4,100,30.07,0.5,Calm,Calm,-,N/A,Fog,Fog,0,2013-10-11 13:23:00
8:28 AM,64.4,64.4,100,30.07,0.8,Calm,Calm,-,N/A,,Mist,0,2013-10-11 13:28:00
8:33 AM,64.4,64.4,100,30.08,1.5,Calm,Calm,-,N/A,,Scattered Clouds,0,2013-10-11 13:33:00
8:38 AM,66.2,66.2,100,30.08,3.0,North,2.3,-,N/A,,Scattered Clouds,350,2013-10-11 13:38:00
8:55 AM,66.9,66.9,100,30.09,10.0,NNW,3.5,-,N/A,,Clear,340,2013-10-11 13:55:00
9:55 AM,73.0,73.0,100,30.07,10.0,NNW,4.6,-,N/A,,Clear,340,2013-10-11 14:55:00
10:55 AM,79.3,67.3,66,30.09,10.0,NE,3.5,-,N/A,,Scattered Clouds,50,2013-10-11 15:55:00
11:55 AM,82.2,65.8,57,30.07,10.0,North,8.1,-,N/A,,Scattered Clouds,10,2013-10-11 16:55:00
12:55 PM,81.7,64.2,55,30.04,10.0,NNW,4.6,-,N/A,,Scattered Clouds,340,2013-10-11 17:55:00
1:55 PM,83.5,65.5,54,30.03,10.0,WNW,8.1,-,N/A,,Scattered Clouds,290,2013-10-11 18:55:00
2:55 PM,84.7,64.8,51,30.01,10.0,North,9.2,-,N/A,,Scattered Clouds,360,2013-10-11 19:55:00
3:55 PM,84.9,64.2,50,29.98,10.0,North,5.8,-,N/A,,Scattered Clouds,360,2013-10-11 20:55:00
4:55 PM,83.7,65.1,53,29.98,10.0,NNE,4.6,-,N/A,,Partly Cloudy,20,2013-10-11 21:55:00
5:55 PM,80.4,66.2,62,29.98,10.0,NNE,3.5,-,N/A,,Partly Cloudy,20,2013-10-11 22:55:00
6:55 PM,72.1,64.6,77,30.01,10.0,South,4.6,-,N/A,,Partly Cloudy,180,2013-10-11 23:55:00
7:55 PM,72.7,65.7,79,30.01,10.0,SSW,2.3,-,N/A,,Partly Cloudy,200,2013-10-12 00:55:00
8:55 PM,68.7,65.1,88,30.03,10.0,WSW,2.3,-,N/A,,Partly Cloudy,250,2013-10-12 01:55:00
9:55 PM,66.7,64.8,93,30.04,10.0,WSW,2.3,-,N/A,,Partly Cloudy,250,2013-10-12 02:55:00
10:55 PM,65.3,64.2,96,30.04,10.0,NNW,1.2,-,N/A,,Partly Cloudy,340,2013-10-12 03:55:00
11:55 PM,64.4,63.7,98,30.04,10.0,NW,1.2,-,N/A,,Clear,320,2013-10-12 04:55:00